Location: Wildcat Hills Observatory
(41.6350°N, 103.6812°W)
Time: 22:52:54
(UTC-06:00)

Cosmos 2251 Rocket - Pass Details

Date: 23 June 2018
Orbit: 765 x 792 km, 74.0° (Epoch: 20 September)

Event Time Altitude Azimuth Distance (km) Brightness Sun altitude
Exits shadow 22:37:45 - 206° (SSW) 2,622 6.0 -17.4°
Reaches altitude 10° 22:38:30 10° 207° (SSW) 2,340 5.7 -17.5°
Maximum altitude 22:43:48 69° 291° (WNW) 839 3.8 -18.0°
Drops below altitude 10° 22:49:06 10° 15° (NNE) 2,339 6.6 -18.5°
Sets 22:51:30 0° 18° (NNE) 3,266 7.4 -18.7°
